TJS-20

Last updated on Sun Dec 14 2025 00:02:54 GMT+0000 (Coordinated Universal Time)

1 66142U 25238A 25347.50137617 .00000037 00000+0 00000+0 0 9998 2 66142 5.8838 300.3152 0002684 67.4687 317.5370 1.00271061 470
UTC large
Height (km)
Speed (km/s)
/
Latitude / Longitude
Inclination (degrees)
Orbital Period (minutes)
Azimuth
Elevation
Range (km)
Doppler Factor

Next 0 passes for location: London (51.5072 / 0.1276)

Sorry there are no passes over London.